Regional Weather Roundup
Issued by NWS Sterling, VA

Home | Current Version | Previous Version | Graphics & Text | Print | Product List | Glossary On
Versions: 1 2 3 4 5 6 7 8 9 10 11 12 13 14 15 16 17 18 19 20 21 22 23 24 25 26 27 28 29 30 31 32 33 34 35 36 37 38 39 40 41 42 43 44 45 46 47 48 49 50
000
ASUS41 KLWX 090110
RWRLWX

REGIONAL WEATHER ROUNDUP
NATIONAL WEATHER SERVICE BALTIMORE MD/WASHINGTON DC
800 PM EST MON FEB 08 2016

Note: "FAIR" indicates few or no clouds below 12,000 feet
with no significant weather and/or obstructions to visibility.
 TC=TEMPERATURE CELSIUS

 * =Non NWS site. Station does not report precipitation (e.g. rain,
    snow, etc.), thunder, or fog.

DCZ001-MDZ009-015-VAZ040>042-051-053>054-090200-
WASHINGTON METRO

CITY           SKY/WX    TMP DP  RH WIND       PRES   REMARKS
WASHINGTON NAT LGT RAIN  41  33  73 S14       29.72S
DULLES         CLOUDY    41  28  60 SE8       29.69S
ANDREWS AFB    LGT RAIN  39  32  76 SE10      29.70S
FT BELVOIR     DRIZZLE   41  32  70 SE9       29.71S
QUANTICO       CLOUDY    42  33  70 SE10      29.71F
COLLEGE PARK*  CLOUDY    41  32  70 SE5       29.71S
LEESBURG*      CLOUDY    43  32  65 S7        29.69S
MANASSAS*      CLOUDY    41  32  70 SE9       29.70S
GAITHERSBURG*  CLOUDY    39  28  65 SE12      29.73S

$$

MDZ006>007-011-014-090200-
BALTIMORE METRO

CITY           SKY/WX    TMP DP  RH WIND       PRES   REMARKS
BWI AIRPORT    DRIZZLE   40  30  67 SE5       29.71S
MD SCIENCE CTR   N/A     41  33  73 MISG      29.71S
MARTIN STATE   DRIZZLE   39  37  93 E8        29.75R
ANNAPOLIS      LGT RAIN  40  34  79 S7        29.73R
FORT MEADE*    CLOUDY    39  30  70 SE7       29.74S

$$

MDZ012-015-019>023-090200-
MARYLAND EASTERN SHORE

CITY           SKY/WX    TMP DP  RH WIND       PRES   REMARKS
OCEAN CITY     CLOUDY    38  33  82 SE5       29.77S
SALISBURY      LGT RAIN  38  34  85 E8        29.76S
BAY BRIDGE AP* DRIZZLE   41  32  70 SE7       29.74R
CAMBRIDGE*     MOCLDY    37  32  81 SE10      29.74S
EASTON*        DRIZZLE   41  36  81 S6        29.77S

$$

MDZ017>025-090200-
SOUTHERN MARYLAND

CITY           SKY/WX    TMP DP  RH WIND       PRES   REMARKS
PATUXENT RIVER LGT RAIN  39  33  79 SE14      29.73S
ST INIGOES     LGT RAIN  40  34  79 E6        29.73S
LEONARDTOWN*   CLOUDY    37  32  81 SE3       29.75S

$$

MDZ003>005-090200-
NORTH CENTRAL MARYLAND

CITY           SKY/WX    TMP DP  RH WIND       PRES   REMARKS
FREDERICK*     DRIZZLE   39  34  81 SE12G17   29.72R
HAGERSTOWN APT CLOUDY    41  26  55 S12       29.65S
WESTMINSTER*   DRIZZLE   37  36  93 SE8       29.68S

$$

MDZ501>502-090200-
WESTERN MARYLAND

CITY           SKY/WX    TMP DP  RH WIND       PRES   REMARKS
OAKLAND*         N/A     30  30 100 W3        29.55S FOG
CUMBERLAND*    CLOUDY    36  34  93 SW3       29.68S

$$

VAZ025>031-090200-
SHENANDOAH VALLEY

CITY           SKY/WX    TMP DP  RH WIND       PRES   REMARKS
WINCHESTER*    CLOUDY    41  28  60 S9        29.64S
FRONT ROYAL*   CLOUDY    39  30  70 S5        29.64S
LURAY*         CLOUDY    37  32  81 SW5       29.64F
NEW MARKET*    CLOUDY    37  33  87 W5        29.63F
STAUNTON*      CLOUDY    40  36  86 CALM      29.65S
WAYNESBORO*    CLOUDY    35  32  90 SE3       29.63R

$$

WVZ021-048>050-054>055-090200-
EASTERN WEST VIRGINIA PANHANDLE

CITY           SKY/WX    TMP DP  RH WIND       PRES   REMARKS
MARTINSBURG    CLOUDY    40  26  57 SE7       29.65S
PETERSBURG*    FAIR      38  31  74 CALM      29.62S

$$

VAZ036>039-050-090200-
CENTRAL FOOTHILLS

CITY           SKY/WX    TMP DP  RH WIND       PRES   REMARKS
CHARLOTTESVILL LGT RAIN  40  34  79 CALM      29.66F
CULPEPER*      CLOUDY    41  28  60 CALM      29.68F
ORANGE*        DRIZZLE   41  32  70 CALM      29.69S
GORDONSVILLE*  CLOUDY    41  35  80 CALM      29.67S
WARRENTON*     CLOUDY    42  32  68 SE3       29.67F

$$

VAZ055>057-090200-
NORTH AND CENTRAL PIEDMONT

CITY           SKY/WX    TMP DP  RH WIND       PRES   REMARKS
FREDERICKSBRG* FAIR      41  33  72 E6        29.69F
STAFFORD*      MOCLDY    40  32  70 E7        29.73F

$$

NCZ024-NYZ072-PAZ021-071-VAZ022-071-090200-
OTHER REGIONAL OBSERVATIONS

CITY           SKY/WX    TMP DP  RH WIND       PRES   REMARKS
NEW YORK CITY  CLOUDY    30  22  72 N6        29.81R
PHILADELPHIA   CLOUDY    37  24  59 E9        29.77R
PITTSBURGH     CLOUDY    34  31  88 SW6       29.60R
ROANOKE        CLOUDY    35  34  96 SW3       29.68R
RICHMOND       FAIR      39  32  76 E10       29.69F
RALEIGH        MOCLDY    41  38  89 S3        29.68S

$$

ANZ530>537-090200-
MARINE OBSERVATIONS

STATION/POSITION TIME  TEMP    WIND        PRES
                       AIR SEA DIR/SP/G
                 (UTC) (F)     (DEG/KT/KT) (MB)
THOMAS PT LIGHT  0000   40 39  130/  7/  8 1007.2
BALT KEY BRIDGE  0000   40     110/ 11/ 13 1006.3R
COVE POINT       0000   39     180/ 15/ 18 1007.4R
LEWISETTA        0000   40 41  160/ 11/ 14 1006.7R
SOLOMONS ISLAND  0000   40 42  150/ 14/ 17   N/A
PINEY POINT      0000          160/ 16/ 17   N/A

$$




USA.gov is the U.S. government's official web portal to all federal, state and local government web resources and services.